TimeAKST,TemperatureF,Dew PointF,Humidity,Sea Level PressureIn,VisibilityMPH,Wind Direction,Wind SpeedMPH,Gust SpeedMPH,PrecipitationIn,Events,Conditions,WindDirDegrees,DateUTC
12:53 AM,30.9,27.0,85,29.28,10.0,North,4.6,-,N/A,,Overcast,10,2013-01-02 09:53:00
1:53 AM,32.0,27.0,82,29.30,10.0,ENE,6.9,-,N/A,,Overcast,60,2013-01-02 10:53:00
3:53 AM,30.0,26.1,85,29.34,10.0,East,4.6,-,N/A,,Partly Cloudy,90,2013-01-02 12:53:00
4:53 AM,28.9,24.1,82,29.35,10.0,East,6.9,-,N/A,,Scattered Clouds,100,2013-01-02 13:53:00
5:53 AM,30.0,25.0,82,29.37,10.0,East,5.8,-,N/A,,Overcast,80,2013-01-02 14:53:00
6:53 AM,30.0,26.1,85,29.38,10.0,Calm,Calm,-,N/A,,Overcast,0,2013-01-02 15:53:00
7:53 AM,32.0,27.0,82,29.39,10.0,NNE,4.6,-,N/A,,Overcast,20,2013-01-02 16:53:00
8:53 AM,32.0,27.0,82,29.41,10.0,NNE,6.9,-,N/A,,Overcast,20,2013-01-02 17:53:00
9:53 AM,32.0,27.0,82,29.43,10.0,East,3.5,-,N/A,,Overcast,100,2013-01-02 18:53:00
10:53 AM,32.0,27.0,82,29.45,10.0,Calm,Calm,-,N/A,,Overcast,0,2013-01-02 19:53:00
11:53 AM,30.9,27.0,85,29.46,10.0,ENE,4.6,-,N/A,,Mostly Cloudy,60,2013-01-02 20:53:00
12:53 PM,33.1,28.9,85,29.47,10.0,East,5.8,-,N/A,,Overcast,80,2013-01-02 21:53:00
1:53 PM,33.1,28.0,82,29.47,10.0,NNE,4.6,-,N/A,,Overcast,30,2013-01-02 22:53:00
2:53 PM,30.9,27.0,85,29.47,10.0,Calm,Calm,-,N/A,,Overcast,0,2013-01-02 23:53:00
3:53 PM,30.0,27.0,88,29.48,10.0,North,4.6,-,N/A,,Scattered Clouds,10,2013-01-03 00:53:00
4:53 PM,28.0,26.1,92,29.49,10.0,NE,3.5,-,N/A,,Clear,50,2013-01-03 01:53:00
5:53 PM,27.0,25.0,92,29.49,10.0,North,5.8,-,N/A,,Partly Cloudy,10,2013-01-03 02:53:00
6:53 PM,26.1,25.0,96,29.49,10.0,North,4.6,-,N/A,,Mostly Cloudy,10,2013-01-03 03:53:00
7:53 PM,25.0,23.0,92,29.49,10.0,NNE,11.5,-,N/A,,Partly Cloudy,20,2013-01-03 04:53:00
8:53 PM,27.0,25.0,92,29.49,10.0,NNE,5.8,-,N/A,,Clear,20,2013-01-03 05:53:00
9:53 PM,28.9,26.1,89,29.49,10.0,NNE,8.1,-,N/A,,Overcast,30,2013-01-03 06:53:00
10:53 PM,34.0,26.1,73,29.49,10.0,ENE,9.2,-,N/A,,Partly Cloudy,60,2013-01-03 07:53:00
11:53 PM,30.9,25.0,79,29.49,10.0,NE,9.2,-,N/A,,Mostly Cloudy,50,2013-01-03 08:53:00